Regional Weather Roundup
Issued by NWS

Home | Current Version | Previous Version | Graphics & Text | Print | Product List | Glossary On
Versions: 1 2 3 4 5 6 7 8 9 10 11 12 13 14 15 16 17 18 19 20 21 22 23 24 25 26 27 28 29
000
ASUS45 KBOU 261107
RWRCO

WEATHER ROUNDUP FOR COLORADO
NATIONAL WEATHER SERVICE DENVER/BOULDER CO
500 AM MDT WED APR 26 2017

NOTE: "FAIR" INDICATES FEW OR NO CLOUDS BELOW 12000 FEET WITH NO
SIGNIFICANT WEATHER AND/OR OBSTRUCTIONS TO VISIBILITY.

COZ001>005-013-030-031-261200-
...NORTHWEST COLORADO...

CITY           SKY/WX    TMP DP  RH WIND       PRES   REMARKS
CRAIG          MIX PCPN  32  27  81 E3        29.91S
HAYDEN         CLOUDY    28  25  86 NE3       29.91S
MEEKER         CLOUDY    36  34  92 CALM      29.91S
MOUNT WERNER   NOT AVBL
STEAMBOAT SPGS CLOUDY    30  28  91 CALM      29.91S
WALDEN           N/A     21  19  93 SE6       29.90R WCI  14
$$

COZ006>008-011-261200-
...WEST CENTRAL VALLEYS...

CITY           SKY/WX    TMP DP  RH WIND       PRES   REMARKS
GRAND JUNCTION CLOUDY    36  35  96 NE6       29.91F
MONTROSE       MOCLDY    36  32  85 CALM      29.94S
EAGLE          FAIR      28  27  96 E6        29.94S WCI  22
RIFLE          CLOUDY    34  30  85 SE5       29.92F WCI  30
DELTA          FAIR      37  32  82 CALM      29.93R
NUCLA          MOCLDY    32  30  93 E5        29.96S WCI  27
$$

COZ017>023-064>068-261200-
...SOUTHWEST COLORADO...

CITY           SKY/WX    TMP DP  RH WIND       PRES   REMARKS
DURANGO        FAIR      25  17  72 VRB5      29.87R WCI  19
CORTEZ         FAIR      27  24  89 CALM      29.92R
PAGOSA SPRINGS FAIR      29  26  90 CALM      29.88S
TELLURIDE      MOCLDY    28  26  90 CALM      29.95S
WOLF CREEK PAS FAIR      16  10  79 NW6       29.95R WCI   7
$$

COZ009-010-012-014-032>034-037-058>063-261200-
...CENTRAL COLORADO...

CITY           SKY/WX    TMP DP  RH WIND       PRES   REMARKS
ASPEN          CLOUDY    31  27  85 N7        29.91R WCI  24
BUENA VISTA    FAIR      31  18  59 W6        29.84S WCI  25
COPPER MTN     LGT SNOW  19  14  79 MISG      29.89R
BERTHOUD PASS  CLOUDY    12   1  62 NW36      29.80R WCI -11
COTTONWOOD PAS FAIR      30  18  59 W15G29    29.85R WCI  19
GUNNISON       FAIR      31  25  78 W7        29.90S WCI  24
KREMMLING      MOCLDY    36  27  69 W5        29.91S
LEADVILLE      CLOUDY    22  17  81 N8G18     29.86S WCI  12
MONARCH PASS   CLOUDY    18  16  93 W25G31    29.98R WCI  -1
SALIDA         FAIR      36  22  57 NW7       29.91R
SUNLIGHT       LGT SNOW N/A N/A N/A MISG      29.97S
WILKERSON PASS FAIR      19  12  73 NW9G18    29.87R WCI   9
$$

COZ069>075-261200-
...SAN LUIS VALLEY/SANGRE DE CRISTO MOUNTAINS...

CITY           SKY/WX    TMP DP  RH WIND       PRES   REMARKS
ALAMOSA        FAIR      27  24  89 NE7       29.83R WCI  19
LA VETA PASS   FAIR      23  21  93 SW16      29.92F WCI  10
SAGUACHE       FAIR      32  21  64 N8        29.85S WCI  25
$$

COZ035-036-038>040-261200-
...NORTHERN COLORADO FRONT RANGE...

CITY           SKY/WX    TMP DP  RH WIND       PRES   REMARKS
DENVER INTL AP FAIR      27  23  85 S7        29.83S WCI  19
DMNS CITY PARK   N/A     31  26  82 E3G10     29.84S
AURORA         PTCLDY    28  26  95 SE5       29.83S WCI  22
FRONT RANGE AP FAIR      32  28  86 S3        29.84R
ERIE MUNI ARPT FAIR      31  28  86 CALM      29.84S
BOULDER MUN AP MOCLDY    32  28  86 CALM      29.83S
CENTENNIAL     CLOUDY    29  26  89 E3        29.82R
BROOMFIELD     CLOUDY    32  27  80 E3        29.83S
FORT COLLINS   FAIR      27  24  89 S6        29.84S WCI  20
LONGMONT       FAIR      33  27  80 CALM      29.86R
$$

COZ041-046-047-076>085-087-088-261200-
...PIKES PEAK/PALMER DIVIDE AND SOUTHERN FOOTHILLS...

CITY           SKY/WX    TMP DP  RH WIND       PRES   REMARKS
COLO. SPRINGS  FAIR      32  26  78 W6        29.81R WCI  26
A. F. ACADEMY  FAIR      28  25  89 NW3       29.79R
SCHRIEVER AFB  FAIR      29  25  86 NW9       29.81R WCI  20
ELLICOTT       NOT AVBL
FALCON         FAIR      27  25  94 N12       29.80S WCI  16
FORT CARSON    NOT AVBL
LIMON          FAIR      28  26  92 NW16      29.79S WCI  16
MONUMENT HILL  FOG       27  27 100 W6        29.82R VSB 1   WCI  20
TRINIDAD       FAIR      34  32  92 W7        29.83R WCI  28
$$

COZ042>045-048>051-090-091-261200-
...NORTHEAST COLORADO...

CITY           SKY/WX    TMP DP  RH WIND       PRES   REMARKS
GREELEY ARPT   FAIR      30  26  85 SW6       29.85S WCI  24
AKRON          FAIR      28  25  88 NW13      29.80S WCI  17
BURLINGTON     NOT AVBL
WRAY           NOT AVBL
STERLING       CLOUDY    32  30  93 N6        29.82R WCI  26
HOLYOKE        CLOUDY    34  28  80 N15G24    29.81S WCI  24
FORT MORGAN    FAIR      27  25  93 CALM      29.83S
$$

COZ086-089-092>099-261200-
...SOUTHEAST COLORADO...

CITY           SKY/WX    TMP DP  RH WIND       PRES   REMARKS
PUEBLO         CLOUDY    37  31  78 CALM      29.82S
LA JUNTA       FAIR      38  32  79 N10       29.82R
LAMAR          CLOUDY    41  36  82 N8        29.80R
SPRINGFIELD      N/A     38  37  97 N20       29.78R
$$




USA.gov is the U.S. government's official web portal to all federal, state and local government web resources and services.